When you browse on this site, cookies collect data to enhance your experience and personalize the content and advertising you see.
Visit our Privacy Policy to learn more. By continuing to use the site, you agree to this use of cookies and data.
  • In Hungary
  • List of Countries
  • For 7 days
  • Water Temperature
  • Satellite Maps
  • Weather Map
  • News
  • Weather Widgets
  • user-avatar
    Login

    Hourly Weather Yenakievo

    Today, 23 February, Saturday

    Time Temperature Precipitation Wind Pressure Humidity
    00:00 -11°C° 0 mm 4 mps 747 mmHg 79%
    01:00 -11°C° 0 mm 4 mps 747 mmHg 80%
    02:00 -10°C° 0 mm 3 mps 748 mmHg 80%
    03:00 -10°C° 0 mm 2 mps 748 mmHg 84%
    04:00 -12°C° 0 mm 3 mps 749 mmHg 84%
    05:00 -12°C° 0 mm 3 mps 749 mmHg 85%
    06:00 -12°C° 0 mm 3 mps 749 mmHg 85%
    07:00 -13°C° 0 mm 3 mps 750 mmHg 85%
    08:00 -14°C° 0 mm 4 mps 750 mmHg 85%
    09:00 -14°C° 0 mm 4 mps 751 mmHg 85%
    10:00 -12°C° 0 mm 4 mps 751 mmHg 83%
    11:00 -11°C° 0 mm 4 mps 752 mmHg 82%
    12:00 -10°C° 0 mm 4 mps 752 mmHg 80%
    13:00 -10°C° 0 mm 4 mps 752 mmHg 81%
    14:00 -9°C° 0 mm 4 mps 752 mmHg 81%
    15:00 -9°C° 0 mm 4 mps 753 mmHg 82%
    16:00 -9°C° 0 mm 4 mps 753 mmHg 83%
    17:00 -9°C° 0 mm 4 mps 753 mmHg 84%
    18:00 -10°C° 0 mm 4 mps 753 mmHg 85%
    19:00 -10°C° 0 mm 4 mps 754 mmHg 85%
    20:00 -10°C° 0 mm 3 mps 754 mmHg 86%
    21:00 -10°C° 0 mm 3 mps 754 mmHg 86%
    22:00 -12°C° 0 mm 3 mps 754 mmHg 88%
    23:00 -12°C° 0 mm 3 mps 754 mmHg 89%

    Tomorrow, 24 February, Sunday

    Time Temperature Precipitation Wind Pressure Humidity
    00:00 -13°C° 0 mm 3 mps 754 mmHg 90%
    01:00 -13°C° 0 mm 3 mps 754 mmHg 91%
    02:00 -13°C° 0 mm 3 mps 755 mmHg 91%
    03:00 -14°C° 0 mm 3 mps 755 mmHg 92%
    04:00 -13°C° 0 mm 2 mps 755 mmHg 92%
    05:00 -14°C° 0 mm 2 mps 754 mmHg 92%
    06:00 -14°C° 0 mm 2 mps 754 mmHg 91%
    07:00 -14°C° 0 mm 2 mps 755 mmHg 90%
    08:00 -13°C° 0 mm 2 mps 755 mmHg 89%
    09:00 -13°C° 0 mm 2 mps 755 mmHg 88%
    10:00 -12°C° 0 mm 2 mps 755 mmHg 82%
    11:00 -9°C° 0 mm 2 mps 755 mmHg 77%
    12:00 -8°C° 0 mm 2 mps 755 mmHg 71%
    13:00 -7°C° 0 mm 2 mps 755 mmHg 67%
    14:00 -6°C° 0 mm 2 mps 755 mmHg 63%
    15:00 -5°C° 0 mm 2 mps 754 mmHg 59%
    16:00 -6°C° 0 mm 2 mps 754 mmHg 59%
    17:00 -6°C° 0 mm 1 mps 754 mmHg 58%
    18:00 -7°C° 0 mm 1 mps 754 mmHg 58%
    19:00 -7°C° 0 mm 1 mps 754 mmHg 60%
    20:00 -7°C° 0 mm 1 mps 754 mmHg 62%
    21:00 -8°C° 0 mm 2 mps 754 mmHg 65%
    22:00 -8°C° 0 mm 2 mps 754 mmHg 66%
    23:00 -8°C° 0 mm 2 mps 754 mmHg 68%

    Day after tomorrow, 25 February, Monday

    Time Temperature Precipitation Wind Pressure Humidity
    00:00 -8°C° 0 mm 2 mps 754 mmHg 69%
    01:00 -7°C° 0 mm 2 mps 753 mmHg 72%
    02:00 -8°C° 0 mm 3 mps 753 mmHg 74%
    03:00 -8°C° 0 mm 3 mps 753 mmHg 77%
    04:00 -7°C° 0 mm 3 mps 752 mmHg 79%
    05:00 -7°C° 0 mm 3 mps 752 mmHg 81%
    06:00 -8°C° 0 mm 4 mps 751 mmHg 83%
    07:00 -7°C° 0 mm 4 mps 751 mmHg 83%
    08:00 -7°C° 0 mm 4 mps 751 mmHg 84%
    09:00 -6°C° 0 mm 5 mps 751 mmHg 84%
    10:00 -5°C° 0 mm 5 mps 750 mmHg 83%
    11:00 -4°C° 0 mm 5 mps 750 mmHg 82%
    12:00 -2°C° 0 mm 5 mps 749 mmHg 82%
    13:00 -1°C° 0 mm 5 mps 748 mmHg 80%
    14:00 -2°C° 0 mm 6 mps 748 mmHg 79%
    15:00 -1°C° 0 mm 6 mps 747 mmHg 77%
    16:00 -2°C° 0.1 mm 6 mps 746 mmHg 77%
    17:00 -2°C° 0.1 mm 6 mps 745 mmHg 77%
    18:00 -2°C° 0.1 mm 6 mps 745 mmHg 78%
    19:00 -2°C° 0.1 mm 6 mps 744 mmHg 79%
    20:00 -3°C° 0.1 mm 6 mps 744 mmHg 81%
    21:00 -3°C° 0.1 mm 6 mps 743 mmHg 83%
    22:00 -2°C° 0 mm 5 mps 743 mmHg 85%
    23:00 -4°C° 0 mm 5 mps 742 mmHg 87%

    26 February, Tuesday

    Time Temperature Precipitation Wind Pressure Humidity
    00:00 -4°C° 0 mm 5 mps 741 mmHg 89%
    01:00 -4°C° 0 mm 5 mps 741 mmHg 89%
    02:00 -4°C° 0 mm 5 mps 740 mmHg 89%
    03:00 -5°C° 0 mm 5 mps 740 mmHg 89%
    04:00 -4°C° 0.1 mm 5 mps 739 mmHg 89%
    05:00 -4°C° 0.1 mm 5 mps 739 mmHg 90%
    06:00 -4°C° 0.1 mm 5 mps 739 mmHg 90%
    07:00 -4°C° 0.1 mm 5 mps 738 mmHg 90%
    08:00 -2°C° 0.1 mm 5 mps 738 mmHg 90%
    09:00 -2°C° 0.1 mm 5 mps 738 mmHg 89%
    10:00 -2°C° 0.1 mm 5 mps 738 mmHg 90%
    11:00 -2°C° 0.1 mm 5 mps 737 mmHg 90%
    12:00 -1°C° 0.1 mm 5 mps 737 mmHg 90%
    13:00 -1°C° 0.1 mm 5 mps 736 mmHg 90%
    14:00 -1°C° 0.1 mm 5 mps 736 mmHg 90%
    15:00 -1°C° 0.1 mm 5 mps 736 mmHg 89%
    16:00 -1°C° 0 mm 4 mps 735 mmHg 90%
    17:00 -2°C° 0 mm 4 mps 735 mmHg 90%
    18:00 -1°C° 0 mm 3 mps 735 mmHg 90%
    19:00 -1°C° 0 mm 3 mps 735 mmHg 92%
    20:00 -2°C° 0 mm 3 mps 735 mmHg 93%
    21:00 -2°C° 0 mm 2 mps 735 mmHg 95%
    22:00 -2°C° 0.1 mm 2 mps 735 mmHg 95%
    23:00 -2°C° 0.1 mm 2 mps 735 mmHg 96%

    27 February, Wednesday

    Time Temperature Precipitation Wind Pressure Humidity
    00:00 -2°C° 0.1 mm 2 mps 735 mmHg 96%
    01:00 -3°C° 0 mm 2 mps 735 mmHg 96%
    02:00 -3°C° 0 mm 2 mps 735 mmHg 95%
    03:00 -3°C° 0 mm 2 mps 735 mmHg 95%
    04:00 -4°C° 0 mm 2 mps 735 mmHg 95%
    05:00 -4°C° 0 mm 2 mps 736 mmHg 96%
    06:00 -5°C° 0 mm 3 mps 736 mmHg 96%
    07:00 -5°C° 0 mm 3 mps 736 mmHg 95%
    08:00 -4°C° 0 mm 3 mps 737 mmHg 93%
    09:00 -4°C° 0 mm 4 mps 737 mmHg 92%
    10:00 -3°C° 0 mm 4 mps 737 mmHg 92%
    11:00 -3°C° 0 mm 4 mps 738 mmHg 91%
    12:00 -2°C° 0 mm 4 mps 738 mmHg 90%
    13:00 -2°C° 0.1 mm 4 mps 738 mmHg 89%
    14:00 -2°C° 0.1 mm 4 mps 738 mmHg 87%
    15:00 -2°C° 0.1 mm 4 mps 738 mmHg 86%
    16:00 -2°C° 0 mm 4 mps 738 mmHg 86%
    17:00 -2°C° 0 mm 4 mps 738 mmHg 86%
    18:00 -3°C° 0 mm 4 mps 739 mmHg 87%
    19:00 -3°C° 0 mm 4 mps 739 mmHg 87%
    20:00 -3°C° 0 mm 4 mps 739 mmHg 87%
    21:00 -4°C° 0 mm 4 mps 739 mmHg 87%
    22:00 -4°C° 0 mm 4 mps 739 mmHg 86%
    23:00 -4°C° 0 mm 4 mps 738 mmHg 84%

    28 February, Thursday

    Time Temperature Precipitation Wind Pressure Humidity
    00:00 -4°C° 0 mm 4 mps 738 mmHg 83%
    01:00 -5°C° 0 mm 4 mps 738 mmHg 82%
    02:00 -5°C° 0 mm 4 mps 737 mmHg 81%
    03:00 -5°C° 0 mm 4 mps 737 mmHg 80%
    04:00 -5°C° 0 mm 4 mps 737 mmHg 83%
    05:00 -5°C° 0 mm 4 mps 736 mmHg 85%
    06:00 -6°C° 0 mm 5 mps 736 mmHg 87%
    07:00 -6°C° 0.1 mm 5 mps 736 mmHg 88%
    08:00 -5°C° 0.1 mm 5 mps 736 mmHg 89%
    09:00 -5°C° 0.1 mm 5 mps 735 mmHg 90%
    10:00 -4°C° 0.1 mm 5 mps 735 mmHg 90%
    11:00 -2°C° 0.1 mm 4 mps 735 mmHg 90%
    12:00 -2°C° 0.1 mm 4 mps 735 mmHg 90%
    13:00 -1°C° 0 mm 4 mps 735 mmHg 88%
    14:00 -1°C° 0 mm 4 mps 735 mmHg 86%
    15:00 -1°C° 0 mm 4 mps 734 mmHg 84%
    16:00 0°C° 0 mm 3 mps 734 mmHg 83%
    17:00 -1°C° 0 mm 3 mps 734 mmHg 83%
    18:00 -1°C° 0 mm 3 mps 734 mmHg 83%
    19:00 -2°C° 0 mm 3 mps 734 mmHg 84%
    20:00 -2°C° 0 mm 3 mps 733 mmHg 85%
    21:00 -2°C° 0 mm 3 mps 733 mmHg 86%
    22:00 -3°C° 0 mm 4 mps 732 mmHg 87%
    23:00 -2°C° 0 mm 4 mps 732 mmHg 87%
    Show more